Simultaneous Nadir Overpasses (SNOs) Predictions

Prediction of SNOs between NOAA-19 and TERRA Satellite Orbit:

Table of predicted SNOs for the next 14.0 days since TLE Epoch: 12/28/2012
Index Date (NOAA-19) Time (NOAA-19) Lat,Lon (NOAA-19) SZA (NOAA-19 ) Date (TERRA) Time (TERRA) Lat,Lon (TERRA) SZA (TERRA ) Distance(km) Time Diff (sec)
1 12/29/2012 08:35:38 -69.20,-129.37 87.72 12/29/2012 08:36:24 -69.23,-129.37 87.69 3.25 46
2 12/29/2012 09:26:44 69.07, 38.04 92.15 12/29/2012 09:25:52 69.07, 38.07 92.15 1.18 52
3 12/31/2012 13:20:07 -69.21, 159.52 87.86 12/31/2012 13:20:44 -69.19, 159.50 87.88 1.95 37
4 12/31/2012 14:11:13 69.06, -33.06 91.99 12/31/2012 14:10:12 69.03, -33.07 91.96 3.33 61
5 01/02/2013 18:04:35 -69.18, 88.45 88.09 01/02/2013 18:05:03 -69.20, 88.43 88.06 3.05 28
6 01/02/2013 18:55:41 69.02,-104.11 91.76 01/02/2013 18:54:31 69.04,-104.14 91.77 2.35 70
7 01/04/2013 22:49:04 -69.21, 17.30 88.28 01/04/2013 22:49:22 -69.21, 17.36 88.28 2.46 18
8 01/04/2013 23:40:05 68.78,-174.89 91.29 01/04/2013 23:38:53 68.87,-175.43 91.38 23.71 72
9 01/07/2013 02:42:52 70.03, 137.70 92.31 01/07/2013 02:44:00 69.91, 139.60 92.16 73.71 68
10 01/07/2013 03:33:31 -69.15, -53.73 88.60 01/07/2013 03:33:42 -69.15, -53.80 88.60 2.63 11
11 01/07/2013 04:24:28 68.51, 114.37 90.75 01/07/2013 04:23:18 68.53, 113.07 90.79 52.89 70
12 01/09/2013 07:27:14 69.73, 67.05 91.70 01/09/2013 07:28:24 69.62, 68.13 91.58 42.96 70
13 01/09/2013 08:17:59 -69.16,-124.85
